Hourly Weather Roundup
Issued by NWS Central Illinois

Home | Current Version | Previous Version | Text Only | Print | Product List | Glossary On
Versions: 1 2 3 4 5 6 7 8 9 10 11 12 13 14 15 16 17 18 19 20 21 22 23 24 25 26 27 28 29 30 31 32 33 34 35 36 37 38 39 40 41 42 43 44 45 46 47 48 49 50
000
NZUS43 KILX 281210
HWRILX

AREA WEATHER ROUNDUP
NATIONAL WEATHER SERVICE, LINCOLN IL
700 AM CDT MON JUL 28 2014


CITY           SKY/WX    TMP DP  RH WIND       PRES   REMARKS
BLOOMINGTON    SUNNY     59  53  80 N10       30.05R
CHAMPAIGN      SUNNY     61  59  94 N13       30.01R
6HR MIN TEMP:  59; 6HR MAX TEMP:  64;

DECATUR        SUNNY     63  57  81 N9        30.03R
6HR MIN TEMP:  62; 6HR MAX TEMP:  67;

FLORA          SUNNY     64  60  89 NW7       30.02R
6HR MIN TEMP:  62; 6HR MAX TEMP:  67;

GALESBURG      CLOUDY    62  57  85 N5        30.09R
JACKSONVILLE   SUNNY     63  62  95 NW5       30.07R
6HR MIN TEMP:  62; 6HR MAX TEMP:  67;

LACON          SUNNY     60  54  80 N10       30.05R
6HR MIN TEMP:  59; 6HR MAX TEMP:  65;

LAWRENCEVILLE  SUNNY     65  61  87 NW9       29.99R
6HR MIN TEMP:  63; 6HR MAX TEMP:  67;

LITCHFIELD     SUNNY     61  60  96 NW5       30.05R
$$


CITY           SKY/WX    TMP DP  RH WIND       PRES   REMARKS
LINCOLN        SUNNY     63  59  86 N6        30.03R
6HR MIN TEMP:  61; 6HR MAX TEMP:  66;

MACOMB         SUNNY     61  58  91 N6        30.10R
MATTOON        SUNNY     61  58  90 NW9       30.00R
6HR MIN TEMP:  59; 6HR MAX TEMP:  64;

MT CARMEL AP   SUNNY     66  63  88 NW6       29.99R
OLNEY-NOBLE AP SUNNY     63  61  94 CALM      30.01R
PARIS          SUNNY     60  59  96 NW5       30.00R
6HR MIN TEMP:  58; 6HR MAX TEMP:  63;

PEORIA         SUNNY     64  57  78 N6        30.06R
6HR MIN TEMP:  63; 6HR MAX TEMP:  67;

PONTIAC        SUNNY     59  57  94 NW5       30.04R
RANTOUL        SUNNY     62  55  79 N10       30.02R
6HR MIN TEMP:  60; 6HR MAX TEMP:  67;

ROBINSON       SUNNY     64  62  93 NW6       30.01R
6HR MIN TEMP:  64; 6HR MAX TEMP:  67;

SPRINGFIELD    PTSUNNY   65  61  87 N7        30.06R
6HR MIN TEMP:  63; 6HR MAX TEMP:  67;

TAYLORVILLE    SUNNY     61  59  94 N8        30.04R
$$

...REGIONAL REPORTS...


CITY           SKY/WX    TMP DP  RH WIND       PRES   REMARKS
CHICAGO O`HARE MOSUNNY   60  49  66 N16       30.01R
KANKAKEE       SUNNY     59  54  82 NW5       30.01R
MOLINE         SUNNY     62  53  72 N8        30.10R
MOUNT VERNON   SUNNY     64  57  77 NW3       30.03R
PITTSFIELD     MOSUNNY   63  60  90 NW5       30.09R
QUINCY         CLEAR     61  59  93 NW7       30.09R
ROCKFORD       MOSUNNY   57  50  77 N10       30.09R
$$


CITY           SKY/WX    TMP DP  RH WIND       PRES   REMARKS
BURLINGTON     MOSUNNY   63  60  90 N12       30.09R
CEDAR RAPIDS   SUNNY     59  53  80 N14       30.12S
DES MOINES     PTCLDY    61  58  90 NW7       30.17R
KIRKSVILLE     MOCLDY    61  58  90 NW7       30.14R
OTTUMWA        CLEAR     60  58  92 N8        30.14R
ST LOUIS       SUNNY     68  60  75 NW8       30.07R
$$


CITY           SKY/WX    TMP DP  RH WIND       PRES   REMARKS
TERRE HAUTE    SUNNY     63  57  81 NW7       29.98R
EVANSVILLE     SUNNY     66  59  78 NW8       29.99R
INDIANAPOLIS   CLOUDY    63  55  75 NW13      29.94R
LAFAYETTE      SUNNY     61  54  77 NW9       29.96R
MADISON        SUNNY     56  51  84 NW10      30.10R
MILWAUKEE      MOSUNNY   56  46  69 N13       30.04R
$$




USA.gov is the U.S. government's official web portal to all federal, state and local government web resources and services.